Weather History for KCUT - January, 2014

Change the Weather History Date:

Friday, January 3, 2014

  Actual Average Record
Temperature  
Mean Temperature 33 °F 24 °F  
Max Temperature 44 °F 35 °F - ()
Min Temperature 22 °F 13 °F - ()
Degree Days  
Heating Degree Days 32 41  
Month to date heating degree days 103 123  
Since 1 July heating degree days 3563 3593  
Cooling Degree Days 0 0  
Month to date cooling degree days 0 0  
Year to date cooling degree days 0 0  
Moisture  
Dew Point 21 °F    
Average Humidity 62    
Maximum Humidity 82    
Minimum Humidity 41    
Precipitation  
Precipitation 0.01 in 0.01 in - ()
Month to date precipitation 0.02 0.03  
Year to date precipitation 0.02 0.03  
Sea Level Pressure  
Sea Level Pressure 29.57 in    
Wind  
Wind Speed 10 mph (West)    
Max Wind Speed 24 mph    
Max Gust Speed 33 mph    
Visibility 9 miles    
Events Snow    
T = Trace of Precipitation, MM = Missing Value Source: NWS Daily Summary

Daily Weather History Graph

Daily Weather History Graph

Search for Another Location

Airport or City:

Trip Planner

Search our weather history database for the weather conditions in past years. The results will help you decide how hot, cold, wet, or windy it might be!

Date:

Astronomy

Jan. 03, 2014 Rise Set
Actual Time 7:28 AM MST 4:29 PM MST
Civil Twilight 6:55 AM MST 5:02 PM MST
Nautical Twilight 6:19 AM MST 5:38 PM MST
Astronomical Twilight 5:44 AM MST 6:13 PM MST
Moon 8:50 AM MST (1/3) 7:48 PM MST (1/3)
Length of Visible Light 10h 06m
Length of Day
9h 01m
Waxing Crescent, 8% of the Moon is Illuminated
Jan 3
Waxing Crescent
Jan 7
First Quarter
Jan 15
Full
Jan 23
Last Quarter
Jan 30
New

Hourly Weather History & Observations

Time (MST) Temp. Windchill Dew Point Humidity Pressure Visibility Wind Dir Wind Speed Gust Speed Precip Events Conditions
12:53 AM 35.1 °F - 18.0 °F 50% 29.81 in 10.0 mi Calm Calm - N/A   Clear
1:53 AM 39.0 °F - 19.0 °F 45% 29.76 in 10.0 mi Calm Calm - N/A   Clear
2:53 AM 35.1 °F 27.9 °F 19.0 °F 52% 29.75 in 10.0 mi West 9.2 mph - N/A   Clear
3:53 AM 35.1 °F 26.9 °F 19.0 °F 52% 29.68 in 10.0 mi West 11.5 mph - N/A   Clear
4:53 AM 33.1 °F 23.4 °F 18.0 °F 54% 29.70 in 10.0 mi West 13.8 mph 20.7 mph N/A   Clear
5:53 AM 32.0 °F 23.0 °F 19.0 °F 59% 29.65 in 10.0 mi West 11.5 mph - N/A   Clear
6:53 AM 32.0 °F 22.5 °F 19.0 °F 59% 29.65 in 10.0 mi West 12.7 mph - N/A   Clear
7:53 AM 33.1 °F 24.4 °F 19.0 °F 56% 29.62 in 10.0 mi West 11.5 mph - N/A   Clear
8:53 AM 41.0 °F 35.8 °F 19.9 °F 43% 29.56 in 10.0 mi SW 8.1 mph - N/A   Clear
9:53 AM 39.0 °F 34.0 °F 21.0 °F 49% 29.53 in 10.0 mi WSW 6.9 mph - N/A   Clear
10:53 AM 37.9 °F 32.1 °F 21.9 °F 53% 29.49 in 10.0 mi WSW 8.1 mph 18.4 mph N/A   Clear
11:53 AM 42.1 °F 37.1 °F 23.0 °F 47% 29.45 in 10.0 mi WSW 8.1 mph - N/A   Clear
12:53 PM 42.1 °F 35.2 °F 23.0 °F 47% 29.40 in 10.0 mi WSW 12.7 mph 21.9 mph N/A   Clear
1:53 PM 37.9 °F 28.9 °F 23.0 °F 55% 29.37 in 10.0 mi West 16.1 mph 27.6 mph N/A   Partly Cloudy
2:53 PM 41.0 °F 33.9 °F 24.1 °F 51% 29.41 in 10.0 mi West 12.7 mph 21.9 mph 0.00 in   Partly Cloudy
3:53 PM 41.0 °F 36.4 °F 24.1 °F 51% 29.45 in 10.0 mi West 6.9 mph - N/A   Mostly Cloudy
4:06 PM 39.2 °F 33.0 °F 26.6 °F 61% 29.47 in 10.0 mi NW 9.2 mph - N/A   Overcast
4:12 PM 39.2 °F 34.2 °F 28.4 °F 65% 29.48 in 1.8 mi NW 6.9 mph - N/A   Haze
4:17 PM 37.4 °F 32.8 °F 30.2 °F 75% 29.48 in 0.8 mi NW 5.8 mph - 0.00 in Snow Light Snow
4:27 PM 35.6 °F 32.8 °F 30.2 °F 81% 29.48 in 1.0 mi West 3.5 mph - 0.01 in Snow Light Snow
4:33 PM 35.6 °F - 30.2 °F 81% 29.48 in 3.0 mi Calm Calm - 0.01 in Snow Light Snow
4:44 PM 37.4 °F 32.8 °F 30.2 °F 75% 29.49 in 8.0 mi WNW 5.8 mph - 0.01 in Snow Light Snow
4:53 PM 35.1 °F 29.3 °F 30.0 °F 82% 29.52 in 10.0 mi Variable 6.9 mph - 0.01 in   Overcast
5:53 PM 32.0 °F 25.6 °F 15.1 °F 50% 29.55 in 10.0 mi Variable 6.9 mph 18.4 mph N/A   Overcast
6:53 PM 33.1 °F 23.0 °F 14.0 °F 46% 29.57 in 10.0 mi West 15.0 mph 27.6 mph N/A   Overcast
7:53 PM 30.0 °F 18.7 °F 16.0 °F 56% 29.58 in 10.0 mi West 16.1 mph 24.2 mph N/A   Overcast
8:53 PM 28.0 °F 16.5 °F 14.0 °F 56% 29.58 in 10.0 mi WNW 15.0 mph 25.3 mph N/A   Overcast
9:53 PM 26.1 °F 15.6 °F 10.9 °F 53% 29.65 in 10.0 mi NNW 11.5 mph 25.3 mph N/A   Partly Cloudy
10:37 PM 24.8 °F 13.4 °F 10.4 °F 54% 29.67 in 10.0 mi North 12.7 mph 29.9 mph 0.00 in Snow Light Snow
10:53 PM 25.0 °F 13.6 °F 10.9 °F 55% 29.73 in 8.0 mi North 12.7 mph 23.0 mph 0.00 in Snow Light Snow
11:53 PM 21.9 °F 10.4 °F 10.0 °F 60% 29.75 in 10.0 mi NNW 11.5 mph 21.9 mph 0.00 in   Overcast